Home   Weather   Sarnen   Past weeks

Flag for Switzerland Past Weather in Sarnen, Obwalden, Switzerland — Yesterday and Last 2 Weeks

Now
27 °F

Clear.


Feels Like: 27 °F
Forecast: 27 / 49 °F
Wind: 1 mph from South

Location: Altdorf

Current Time: Dec 8, 2016 at 5:12:03 am

Latest Report: Dec 8, 2016 at 4:00 am


Visibility: 9 mi

Pressure: 30.67 "Hg

Humidity: 91%

Dew Point: 25 °F

Location of SarnenLocation

Past Weather in Sarnen — Graph

°F

Sarnen Temperature Yesterday

Maximum temperature yesterday: 35 °F (at 3:00 pm)
Minimum temperature yesterday: 26 °F (at 10:00 pm)
Average temperature yesterday: 31 °F

High & Low Weather Summary for the Past Weeks

 TemperatureHumidityPressure
High67 °F (Nov 23, 2:00 pm)100% (Dec 5, 7:00 am)30.70 "Hg (Dec 5, 7:00 am)
Low20 °F (Dec 4, 5:00 am)29% (Nov 23, 8:00 pm)29.82 "Hg (Nov 25, 6:00 am)
Average39 °F80%30.25 "Hg
* Reported Nov 23 2:00 am — Dec 8 2:00 am, Sarnen, Weather by CustomWeather, © 2016

Note: Actual official high and low records may vary slightly from our data, if they occured in-between our weather recording intervals... More about our weather records

Advertising

Sarnen Weather History for the Previous 24 Hours

Scroll right to see more
 ConditionsComfort  
Time TempWeatherWind HumidityBarometerVisibility
2:00 am
Thu, Dec 8
25 °FChilly.1 mph94%30.68 "HgN/A
1:00 am25 °FPassing clouds.3 mph91%30.69 "Hg9 mi
12:00 am25 °FChilly.2 mph93%30.69 "HgN/A
11:00 pm
Wed, Dec 7
28 °FChilly.2 mph91%30.68 "HgN/A
10:00 pm26 °FFog.2 mph93%30.70 "Hg3 mi
9:00 pm28 °FChilly.1 mph93%30.68 "HgN/A
8:00 pm27 °FChilly.3 mph95%30.69 "HgN/A
7:00 pm28 °FHaze.2 mph97%30.67 "Hg1 mi
6:00 pm30 °FChilly.3 mph93%30.66 "HgN/A
5:00 pm31 °FChilly.3 mph90%30.62 "HgN/A
4:00 pm33 °FLow clouds.3 mph89%30.61 "Hg2 mi
3:00 pm35 °FChilly.3 mph86%30.60 "HgN/A
2:00 pm34 °FChilly.1 mph87%30.59 "HgN/A
1:00 pm34 °FLow clouds.3 mph88%30.58 "Hg6 mi
12:00 pm34 °FChilly.1 mph88%30.59 "HgN/A
11:00 am33 °FChilly.3 mph92%30.60 "HgN/A
10:00 am32 °FFog.5 mph93%30.61 "Hg3 mi
7:00 am32 °FOvercast.2 mph94%30.59 "Hg9 mi
6:00 am31 °FChilly.2 mph96%30.59 "HgN/A
Weather by CustomWeather, © 2016

See weather overviewHow to use our weather pages